Fairbanks, AK

9:04 AM AKDT on September 26, 2016 (GMT -0800)
Fairbanks International

Weather History for PAFA - December, 2014

Change the Weather History Date:

Monday, December 8, 2014

  Actual Average Record
Temperature  
Mean Temperature 12 °F -3 °F  
Max Temperature 22 °F 6 °F 55 °F (1934)
Min Temperature 1 °F -12 °F -53 °F (1935)
Degree Days  
Heating Degree Days 53 68  
Month to date heating degree days 442 541  
Since 1 July heating degree days 4160 4672  
Cooling Degree Days 0 0  
Month to date cooling degree days 0 0  
Year to date cooling degree days 27 61  
Moisture  
Dew Point 9 °F    
Average Humidity 79    
Maximum Humidity 88    
Minimum Humidity 67    
Precipitation  
Precipitation 0.05 in 0.02 in 0.30 in (1931)
Month to date precipitation 0.53 0.15  
Year to date precipitation 16.76 10.32  
Snow  
Snow 0.70 in 0.40 in 8.00 in (2011)
Month to date snowfall 6.9 3.0  
Since 1 July snowfall 16.7 28.8  
Snow Depth 9.00 in    
Sea Level Pressure  
Sea Level Pressure 29.24 in    
Wind  
Wind Speed 6 mph (NE)    
Max Wind Speed 10 mph    
Max Gust Speed -    
Visibility 8 miles    
Events Snow    
T = Trace of Precipitation, MM = Missing Value Source: NWS Daily Summary

Daily Weather History Graph

Daily Weather History Graph

Search for Another Location

Airport or City:

Trip Planner

Search our weather history database for the weather conditions in past years. The results will help you decide how hot, cold, wet, or windy it might be!

Date:

Astronomy

Dec. 08, 2014 Rise Set
Actual Time 10:38 AM AKST 2:48 PM AKST
Civil Twilight 9:18 AM AKST 4:08 PM AKST
Nautical Twilight 8:08 AM AKST 5:18 PM AKST
Astronomical Twilight 7:07 AM AKST 6:19 PM AKST
Moon 6:09 PM AKST (12/8) 11:30 AM AKST (12/8)
Length of Visible Light 6h 50m
Length of Day
4h 09m
Waning Gibbous, 94% of the Moon is Illuminated
Dec 8
Waning Gibbous
Dec 14
Last Quarter
Dec 21
New
Dec 28
First Quarter
Jan 4
Full

Hourly Weather History & Observations

Time (AKST) Temp. Windchill Dew Point Humidity Pressure Visibility Wind Dir Wind Speed Gust Speed Precip Events Conditions
12:20 AM 21.0 °F 14.6 °F 12.9 °F 71% 29.35 in 5.0 mi NE 4.6 mph - N/A Snow Light Snow
12:32 AM 21.0 °F 14.6 °F 14.0 °F 74% 29.34 in 1.5 mi NE 4.6 mph - N/A Snow Light Snow
12:53 AM 19.9 °F 13.4 °F 16.0 °F 85% 29.37 in 0.8 mi NNE 4.6 mph - N/A Snow Light Snow
1:06 AM 19.9 °F 11.1 °F 16.0 °F 85% 29.33 in 1.2 mi NE 6.9 mph - N/A Snow Light Snow
1:53 AM 21.0 °F 13.4 °F 16.0 °F 81% 29.34 in 1.5 mi NE 5.8 mph - N/A Snow Light Snow
2:17 AM 21.0 °F 14.6 °F 16.0 °F 81% 29.30 in 2.0 mi ENE 4.6 mph - N/A Snow Light Snow
2:40 AM 19.9 °F 14.9 °F 16.0 °F 85% 29.30 in 3.0 mi ESE 3.5 mph - N/A Snow Light Snow
2:53 AM 19.9 °F 14.9 °F 16.0 °F 85% 29.33 in 7.0 mi East 3.5 mph - N/A Snow Light Snow
3:20 AM 19.9 °F 13.4 °F 16.0 °F 85% 29.29 in 10.0 mi East 4.6 mph - N/A   Mostly Cloudy
3:53 AM 16.0 °F 5.3 °F 12.0 °F 84% 29.32 in 10.0 mi NNE 8.1 mph - N/A   Mostly Cloudy
4:53 AM 10.9 °F -0.8 °F 8.1 °F 88% 29.31 in 10.0 mi NE 8.1 mph - N/A   Scattered Clouds
5:53 AM 17.1 °F 5.8 °F 12.9 °F 84% 29.30 in 10.0 mi NNE 9.2 mph - N/A   Scattered Clouds
6:53 AM 9.0 °F 2.4 °F 5.0 °F 84% 29.30 in 10.0 mi North 3.5 mph - N/A   Scattered Clouds
7:53 AM 9.0 °F -3.2 °F 5.0 °F 84% 29.29 in 10.0 mi NE 8.1 mph - N/A   Scattered Clouds
8:53 AM 10.0 °F -2.9 °F 6.1 °F 84% 29.27 in 10.0 mi NNE 9.2 mph - N/A   Scattered Clouds
9:53 AM 10.0 °F 1.8 °F 6.1 °F 84% 29.26 in 10.0 mi East 4.6 mph - N/A   Scattered Clouds
10:53 AM 14.0 °F 3.9 °F 8.1 °F 77% 29.25 in 10.0 mi ENE 6.9 mph - N/A   Scattered Clouds
11:53 AM 8.1 °F - 1.9 °F 76% 29.24 in 10.0 mi Calm Calm - N/A   Mostly Cloudy
12:53 PM 6.1 °F -2.8 °F 1.0 °F 80% 29.24 in 10.0 mi NE 4.6 mph - N/A   Mostly Cloudy
1:53 PM 5.0 °F -5.6 °F -0.0 °F 80% 29.22 in 10.0 mi NNE 5.8 mph - N/A   Mostly Cloudy
2:53 PM 12.9 °F 1.6 °F 7.0 °F 77% 29.19 in 10.0 mi NNE 8.1 mph - N/A   Mostly Cloudy
3:53 PM 12.9 °F 0.7 °F 7.0 °F 77% 29.18 in 10.0 mi NNE 9.2 mph - N/A   Mostly Cloudy
4:53 PM 14.0 °F 3.9 °F 8.1 °F 77% 29.15 in 10.0 mi NNE 6.9 mph - N/A   Mostly Cloudy
5:53 PM 16.0 °F 5.3 °F 10.0 °F 77% 29.13 in 10.0 mi ENE 8.1 mph - N/A   Mostly Cloudy
6:53 PM 16.0 °F 7.4 °F 9.0 °F 74% 29.12 in 10.0 mi NNE 5.8 mph - N/A   Mostly Cloudy
7:53 PM 16.0 °F 4.4 °F 9.0 °F 74% 29.12 in 10.0 mi NNE 9.2 mph - N/A   Overcast
8:53 PM 14.0 °F 3.9 °F 8.1 °F 77% 29.12 in 10.0 mi NE 6.9 mph - N/A   Overcast
9:53 PM 10.9 °F -2.6 °F 6.1 °F 81% 29.11 in 10.0 mi NE 10.4 mph - N/A   Mostly Cloudy
10:53 PM 14.0 °F 3.9 °F 8.1 °F 77% 29.10 in 10.0 mi ENE 6.9 mph - N/A   Mostly Cloudy
11:53 PM 10.9 °F 0.2 °F 5.0 °F 77% 29.11 in 10.0 mi ENE 6.9 mph - N/A   Mostly Cloudy